全部
B T & K H Ranch Airport (Dry Creek, LA) 44LA 天气
There is no TAF data available at 44LA or any nearby airports.
There is no METAR data available at 44LA. Showing METAR data for KDRI (21 mi W).
DRI近期METAR历史数据(44LA无数据)
| Date | Time (CDT) | Flight Rules | Wind Dir. | Speed | Type | Height AGL (ft) | Visibility | Temp (°C) | Temp (°F) | Dew Point (°C) | Dew Point (°F) | Rel. Humid. | Pressure | Density Altitude | Remarks |
|---|---|---|---|---|---|---|---|---|---|---|---|---|---|---|---|
| 04-五月 | 23:15 | VFR | 150° | 6 kt | 10 miles | 19° | 66° | 17° | 62° | 87% | 29.89 in Hg | 711 ft | |||
| 04-五月 | 22:55 | VFR | 150° | 6 kt | 10 miles | 19° | 66° | 17° | 62° | 86% | 29.89 in Hg | 711 ft | |||
| 04-五月 | 22:35 | VFR | 160° | 6 kt | 10 miles | 20° | 68° | 17° | 62° | 83% | 29.89 in Hg | 831 ft | |||
| 04-五月 | 22:15 | VFR | 160° | 6 kt | 10 miles | 20° | 68° | 17° | 62° | 81% | 29.89 in Hg | 831 ft | |||
| 04-五月 | 21:55 | VFR | 160° | 6 kt | 10 miles | 20° | 68° | 16° | 60° | 80% | 29.89 in Hg | 831 ft | |||
| 04-五月 | 21:35 | VFR | 150° | 5 kt | 10 miles | 20° | 68° | 16° | 60° | 78% | 29.88 in Hg | 841 ft | |||
| 04-五月 | 21:15 | VFR | 170° | 7 kt | 10 miles | 21° | 69° | 16° | 60° | 74% | 29.89 in Hg | 951 ft | |||
| 04-五月 | 20:55 | VFR | 180° | 7 kt | 10 miles | 21° | 69° | 16° | 60° | 71% | 29.87 in Hg | 971 ft | |||
| 04-五月 | 20:35 | VFR | 170° | 9 kt | 10 miles | 22° | 71° | 15° | 59° | 68% | 29.87 in Hg | 1,091 ft | |||
| 04-五月 | 20:15 | VFR | 180° | 9 kt | 10 miles | 22° | 71° | 15° | 59° | 67% | 29.87 in Hg | 1,091 ft | |||
| 04-五月 | 19:55 | VFR | 180° | 10 kt | 10 miles | 22° | 71° | 15° | 59° | 64% | 29.87 in Hg | 1,091 ft | |||
| 04-五月 | 19:35 | VFR | 190° | 11 kt | 10 miles | 23° | 73° | 15° | 59° | 61% | 29.87 in Hg | 1,211 ft | |||
| 04-五月 | 19:15 | VFR | 170° | 10 kt | 10 miles | 24° | 75° | 15° | 59° | 58% | 29.87 in Hg | 1,331 ft | |||
| 04-五月 | 18:55 | VFR | 180° | 11 kt | 10 miles | 24° | 75° | 15° | 59° | 56% | 29.88 in Hg | 1,321 ft | |||
| 04-五月 | 18:35 | VFR | 170° | 8 kt | 10 miles | 24° | 75° | 15° | 59° | 55% | 29.88 in Hg | 1,321 ft | |||
| 04-五月 | 18:15 | VFR | 190° | 11 kt | 10 miles | 25° | 77° | 14° | 57° | 51% | 29.89 in Hg | 1,431 ft | |||
| 04-五月 | 17:55 | VFR | 170° | 8 kt | 10 miles | 25° | 77° | 14° | 57° | 49% | 29.89 in Hg | 1,431 ft | |||
| 04-五月 | 17:35 | VFR | 180° | 11 kt | 10 miles | 26° | 78° | 13° | 55° | 47% | 29.90 in Hg | 1,541 ft | |||
| 04-五月 | 17:15 | VFR | 160° | 11 kt | 10 miles | 26° | 78° | 13° | 55° | 45% | 29.90 in Hg | 1,541 ft | |||
| 04-五月 | 16:55 | VFR | 170° | 8 kt | 10 miles | 26° | 78° | 13° | 55° | 43% | 29.90 in Hg | 1,541 ft | |||
| 04-五月 | 16:15 | VFR | 170° | 10 kt | 10 miles | 26° | 78° | 12° | 53° | 43% | 29.92 in Hg | 1,521 ft | |||
| 04-五月 | 15:55 | VFR | 180° | 12 kt | 10 miles | 26° | 78° | 12° | 53° | 40% | 29.93 in Hg | 1,511 ft | |||
| 04-五月 | 15:35 | VFR | 190° | 10 kt | 10 miles | 27° | 80° | 12° | 53° | 39% | 29.94 in Hg | 1,621 ft | |||
| 04-五月 | 15:15 | VFR | 180° | 12 kt | 10 miles | 26° | 78° | 12° | 53° | 40% | 29.94 in Hg | 1,501 ft |
登录
| 您的浏览器不支持. 升级您的浏览器 |
